Tracking 20232 objects as of 18-Jan-2020
HD Live streaming from Space Station
objects crossing your sky now

CLUSTER II-FM6

Track CLUSTER II-FM6 now!
CLUSTER II-FM6 is classified as:


NORAD ID: 26410
Int'l Code: 2000-041A
Perigee: 35,452.5 km
Apogee: 97,328.9 km
Inclination: 131.6 °
Period: 3,255.5 minutes
Semi major axis: 72761 km
RCS: 1.9953 m2 (large)
Launch date: July 16, 2000
Source: European Space Agency (ESA)
Launch site: TYURATAM MISSILE AND SPACE COMPLEX (TTMTR)
aabbcc
Your satellite tracking list
Your tracking list is empty




NASA's NSSDC Master Catalog

Two Line Element Set (TLE):
1 26410U 00041A   20020.10106337  .00000028  00000-0  00000+0 0  9992
2 26410 131.6037 340.5174 4251984 179.2286 359.0803  0.44233229 21682
Source of the keplerian elements: AFSPC